[[{"header":{"parameterUnit":"m.s-1","parameterCategory":1,"la1":30.2991,"la2":30.254,"lo1":-89.0895,"lo2":-89.0444,"dy":0.0017,"dx":0.0017,"nx":28,"ny":28,"refTime":"2024-10-11T03:00:00:Z","depth":0,"parameterNumber":2,"parameterNumberName":"U-component_of_WINDS"},"data":[0,0,0,0,0,0,0,0,0,0,0,0,0,0,0,0,0,0,0,0,0,0,0,0,0,0,0,0,0,0,0,0,0,0,0,0,0,0,0,0,0,0,0,0,0,0,0,0,0,0,0,0,0,0,0,0,0,0,-0.623,-0.6229,0,-0.6185,-0.6185,-0.6184,-0.6095,-0.6094,-0.6092,-0.609,-0.6048,-0.6049,-0.6049,0,0,0,0,0,0,0,0,0,0,0,0,0,-0.6241,-0.6241,-0.623,-0.6229,-0.6228,-0.6185,-0.6185,-0.6184,-0.6096,-0.6094,-0.6091,-0.6089,-0.6048,-0.6048,-0.6049,0,0,0,0,0,0,0,0,0,0,0,0,0,-0.6221,-0.6241,-0.623,-0.6179,-0.6174,-0.6185,-0.6185,-0.6184,-0.6096,-0.6094,-0.6091,-0.6088,-0.6048,-0.6048,-0.6049,-0.6107,0,0,-0.6052,-0.6052,0,0,0,0,0,0,0,0,-0.6222,-0.622,-0.6187,-0.6183,-0.6177,-0.6143,-0.6173,-0.6158,-0.6097,-0.6126,-0.609,-0.6087,-0.6082,-0.608,-0.6077,-0.6105,-0.6103,-0.6052,-0.6052,-0.6052,-0.6053,0,0,0,0,0,0,0,-0.6223,-0.6222,-0.6212,-0.6187,-0.6181,-0.616,-0.6154,-0.617,-0.612,-0.6123,-0.6117,-0.6112,-0.6079,-0.6077,-0.6076,-0.6103,-0.6052,-0.6052,-0.6053,-0.6053,-0.6178,-0.618,0,0,0,0,0,0,-0.6232,-0.6223,-0.6213,-0.6211,-0.6193,-0.6162,-0.6155,-0.6157,-0.6119,-0.6111,-0.6115,-0.6108,-0.6077,-0.6075,-0.6074,-0.6141,-0.6052,-0.6053,-0.6054,-0.6175,-0.6178,-0.6181,0,0,0,0,0,0,-0.6232,-0.6232,-0.6215,-0.6215,-0.6212,-0.6164,-0.6167,-0.6157,-0.6155,-0.6113,-0.6103,-0.6122,-0.6075,-0.6073,-0.61,-0.6138,-0.6054,-0.6054,-0.6172,-0.6176,-0.618,-0.6274,0,0,0,0,0,0,-0.6233,-0.6232,-0.6253,-0.6216,-0.6212,-0.6241,-0.6169,-0.6158,-0.6156,-0.6148,-0.6117,-0.6109,-0.6072,-0.6099,-0.6101,-0.6137,-0.6055,-0.6168,-0.6174,-0.6179,-0.6267,-0.6281,-0.6292,0,0,0,0,0,-0.6234,-0.6282,-0.6255,-0.6254,-0.6237,-0.6243,-0.6241,-0.6197,-0.616,-0.6181,-0.6154,-0.611,-0.6133,-0.6103,-0.6103,-0.6141,-0.6165,-0.6172,-0.6178,-0.6261,-0.6278,-0.6292,0,0,0,0,0,0,-0.6325,-0.6276,-0.6245,-0.6282,-0.6268,-0.6228,-0.6253,-0.6216,-0.6212,-0.6204,-0.615,-0.6144,-0.6178,-0.6162,-0.6129,-0.6196,-0.6142,-0.6149,-0.6206,-0.6221,-0.6233,-0.6237,-0.6056,0,0,0,0,0,-0.6349,-0.6358,-0.6315,-0.6352,-0.6346,-0.6301,-0.6303,-0.627,-0.6253,-0.6246,-0.6221,-0.6207,-0.6211,-0.6215,-0.6216,-0.6264,-0.6257,-0.6291,-0.6303,-0.6314,-0.6321,-0.6347,-0.6362,-0.6202,-0.6202,-0.6202,0,0,-0.64,-0.6374,-0.6383,-0.637,-0.6354,-0.6366,-0.6297,-0.6311,-0.6319,-0.6249,-0.6273,-0.6254,-0.6235,-0.6273,-0.6288,-0.626,-0.6363,-0.6322,-0.6331,-0.6332,-0.6355,-0.637,-0.6383,-0.6207,-0.6206,-0.6205,0,0,-0.6498,-0.6479,-0.6508,-0.6494,-0.6471,-0.6441,-0.6449,-0.6415,-0.64,-0.6423,-0.637,-0.638,-0.6388,-0.6377,-0.6372,-0.6467,-0.6428,-0.6469,-0.6536,-0.6562,-0.6574,-0.6585,-0.6621,-0.6634,-0.6476,-0.6477,-0.6477,0,-0.6564,-0.6578,-0.6528,-0.6546,-0.6543,-0.6478,-0.6509,-0.6498,-0.6478,-0.6477,-0.6446,-0.6455,-0.6438,-0.6473,-0.6496,-0.6494,-0.6502,-0.6473,-0.6576,-0.6587,-0.6596,-0.6629,-0.6643,-0.6482,-0.6481,-0.6481,-0.648,0,-0.6661,-0.6671,-0.6698,-0.6679,-0.6679,-0.6703,-0.6658,-0.6664,-0.6632,-0.6606,-0.6631,-0.6608,-0.6604,-0.6609,-0.6578,-0.6641,-0.6625,-0.6586,-0.6531,-0.6617,-0.6648,-0.666,-0.6489,-0.6487,-0.6486,-0.6485,0,0,-0.6815,-0.6769,-0.678,-0.6771,-0.6742,-0.675,-0.6772,-0.6767,-0.6774,-0.6762,-0.678,-0.6789,-0.6753,-0.6748,-0.6715,-0.6737,-0.6816,-0.6695,-0.6694,-0.672,-0.6886,-0.6917,-0.6932,-0.6789,-0.6792,-0.6793,-0.6888,0,-0.6908,-0.6942,-0.6898,-0.6942,-0.6952,-0.6892,-0.6911,-0.6896,-0.6873,-0.6879,-0.6853,-0.6861,-0.6812,-0.6809,-0.6828,-0.6803,-0.6849,-0.6795,-0.6807,-0.6809,-0.6815,-0.6947,-0.6979,-0.707,-0.69,-0.6901,-0.6903,0,-0.702,-0.7013,-0.7058,-0.7027,-0.703,-0.7048,-0.7041,-0.7047,-0.703,-0.7011,-0.7006,-0.6966,-0.6987,-0.6934,-0.6963,-0.6927,-0.693,-0.6918,-0.692,-0.6921,-0.6862,-0.6953,-0.7098,-0.7112,-0.6921,-0.6919,-0.6918,0,-0.713,-0.7132,-0.716,-0.7154,-0.7118,-0.7133,-0.7118,-0.7098,-0.7099,-0.7093,-0.7093,-0.709,-0.7089,-0.7089,-0.705,-0.7014,-0.7085,-0.7027,-0.7071,-0.7073,-0.709,-0.7089,-0.7238,-0.709,-0.709,-0.7089,-0.7089,0,-0.7239,-0.7269,-0.7209,-0.7226,-0.7259,-0.7209,-0.7243,-0.7223,-0.7206,-0.7219,-0.7166,-0.718,-0.7127,-0.7136,-0.7106,-0.7136,-0.7136,-0.7122,-0.7114,-0.7128,-0.713,-0.7129,-0.7123,-0.7093,-0.7092,-0.7091,-0.7091,0,-0.7367,-0.7328,-0.7354,-0.7318,-0.731,-0.7336,-0.7305,-0.732,-0.7294,-0.7311,-0.7313,-0.7271,-0.7279,-0.724,-0.7241,-0.722,-0.7266,-0.7246,-0.7272,-0.7266,-0.7313,-0.731,-0.7468,-0.7487,-0.7326,-0.7327,-0.7328,0,-0.7439,-0.7461,-0.7428,-0.7432,-0.7421,-0.7429,-0.7429,-0.7381,-0.7384,-0.7366,-0.7384,-0.7387,-0.7387,-0.7403,-0.7374,-0.7375,-0.7356,-0.7411,-0.7355,-0.7369,-0.7358,-0.7358,-0.7361,-0.7423,-0.7425,-0.7427,-0.7428,0,-0.7573,-0.7552,-0.7554,-0.7549,-0.7551,-0.7545,-0.7536,-0.7543,-0.7492,-0.7498,-0.7505,-0.7505,-0.7506,-0.751,-0.7505,-0.7492,-0.7453,-0.7446,-0.7456,-0.7471,-0.7485,-0.7479,-0.7305,-0.7442,-0.7441,-0.744,-0.7439,-0.7439,-0.7676,-0.7693,-0.7672,-0.7676,-0.7664,-0.7657,-0.767,-0.7645,-0.7649,-0.7646,-0.7618,-0.763,-0.7614,-0.7603,-0.7594,-0.7604,-0.7578,-0.7593,-0.7597,-0.7601,-0.761,-0.7483,-0.7603,-0.7602,-0.7602,-0.7601,-0.7601,0,-0.7808,-0.7791,-0.7795,-0.7784,-0.7788,-0.7749,-0.7737,-0.7743,-0.7755,-0.7742,-0.7743,-0.7752,-0.7756,-0.7728,-0.7728,-0.7742,-0.7724,-0.7744,-0.7743,-0.7741,-0.7633,-0.7624,-0.7759,-0.7759,-0.7759,-0.7759,-0.7759,-0.7759,-0.7877,-0.7904,-0.7881,-0.7903,-0.7886,-0.7898,-0.7895,-0.7888,-0.7878,-0.789,-0.7893,-0.7874,-0.7855,-0.7854,-0.7857,-0.7849,-0.7852,-0.7879,-0.7865,-0.7764,-0.7749,-0.7734,-0.7726,-0.788,-0.788,-0.7972,-0.7973,-0.7974]},{"header":{"parameterUnit":"m.s-1","parameterCategory":1,"la1":30.2991,"la2":30.254,"lo1":-89.0895,"lo2":-89.0444,"dy":0.0017,"dx":0.0017,"nx":28,"ny":28,"refTime":"2024-10-11T03:00:00:Z","depth":0,"parameterNumber":3,"parameterNumberName":"V-component_of_WINDS"},"data":[0,0,0,0,0,0,0,0,0,0,0,0,0,0,0,0,0,0,0,0,0,0,0,0,0,0,0,0,0,0,0,0,0,0,0,0,0,0,0,0,0,0,0,0,0,0,0,0,0,0,0,0,0,0,0,0,0,0,1.5925,1.5924,0,1.5882,1.5881,1.5881,1.5889,1.589,1.5891,1.5891,1.5841,1.5839,1.5837,0,0,0,0,0,0,0,0,0,0,0,0,0,1.6009,1.6007,1.5925,1.5924,1.5924,1.5882,1.5881,1.588,1.5889,1.589,1.5891,1.5892,1.5842,1.5839,1.5837,0,0,0,0,0,0,0,0,0,0,0,0,0,1.5969,1.6007,1.5925,1.5923,1.5922,1.5882,1.5881,1.588,1.5889,1.589,1.5891,1.5892,1.5843,1.584,1.5836,1.5793,0,0,1.5827,1.5826,0,0,0,0,0,0,0,0,1.5972,1.5966,1.5924,1.5923,1.5922,1.5892,1.5892,1.5851,1.5888,1.5901,1.5891,1.5893,1.5857,1.5852,1.5842,1.5791,1.5789,1.5827,1.5825,1.5823,1.5823,0,0,0,0,0,0,0,1.5974,1.5968,1.5907,1.5923,1.5922,1.5922,1.5918,1.5885,1.5872,1.59,1.5901,1.5896,1.5856,1.5845,1.584,1.5788,1.5827,1.5824,1.5822,1.5821,1.5699,1.5698,0,0,0,0,0,0,1.5979,1.597,1.5909,1.5906,1.5951,1.592,1.5915,1.59,1.5873,1.587,1.5895,1.5896,1.5849,1.5844,1.5839,1.5786,1.5823,1.5821,1.5819,1.5701,1.5699,1.5698,0,0,0,0,0,0,1.598,1.5973,1.591,1.5938,1.5931,1.5917,1.59,1.5899,1.5887,1.5869,1.5866,1.5885,1.585,1.5843,1.5805,1.5784,1.5819,1.5816,1.5702,1.57,1.5698,1.568,0,0,0,0,0,0,1.5983,1.5974,1.5958,1.5938,1.5929,1.5879,1.5899,1.5897,1.5882,1.5884,1.5859,1.5856,1.585,1.5809,1.5802,1.578,1.5814,1.5704,1.5701,1.5699,1.5682,1.5677,1.5673,0,0,0,0,0,1.5986,1.5953,1.5957,1.595,1.591,1.5878,1.5872,1.5868,1.5881,1.5864,1.5853,1.5857,1.5788,1.5806,1.5797,1.5774,1.5705,1.5702,1.5699,1.5684,1.5678,1.5673,0,0,0,0,0,0,1.5969,1.5951,1.5955,1.5916,1.5898,1.5879,1.5858,1.5862,1.5839,1.5841,1.5835,1.583,1.579,1.5779,1.5798,1.5731,1.5748,1.5743,1.574,1.5734,1.573,1.5732,1.5811,0,0,0,0,0,1.5961,1.5939,1.5923,1.589,1.5881,1.5871,1.5857,1.5856,1.5837,1.5829,1.5814,1.5794,1.5768,1.5751,1.5726,1.5681,1.5675,1.5661,1.5657,1.5653,1.5648,1.5623,1.5616,1.5688,1.5688,1.5688,0,0,1.5944,1.5931,1.5917,1.5886,1.5873,1.5847,1.5865,1.5837,1.5818,1.5824,1.5787,1.5776,1.5753,1.5712,1.5692,1.57,1.5628,1.5649,1.5647,1.5644,1.5619,1.5612,1.5606,1.5685,1.5686,1.5686,0,0,1.5899,1.5888,1.5859,1.5845,1.5826,1.582,1.5813,1.5793,1.5787,1.575,1.5754,1.573,1.5686,1.5669,1.5655,1.5605,1.5608,1.5597,1.5573,1.5548,1.5543,1.5538,1.5518,1.5512,1.5593,1.5593,1.5593,0,1.5879,1.5843,1.5843,1.5815,1.5801,1.5808,1.5777,1.5764,1.5736,1.5725,1.5735,1.568,1.5665,1.5619,1.5607,1.5596,1.5586,1.5599,1.5544,1.5539,1.5534,1.5515,1.5508,1.5591,1.5592,1.5592,1.5592,0,1.5819,1.5794,1.5772,1.5748,1.5731,1.5702,1.5696,1.5679,1.5679,1.5672,1.5634,1.5617,1.5588,1.5578,1.5577,1.5531,1.5537,1.5546,1.5563,1.5526,1.5508,1.5501,1.559,1.559,1.5591,1.5591,0,0,1.576,1.5737,1.5729,1.5718,1.5697,1.5677,1.5648,1.5622,1.5607,1.5588,1.5562,1.5525,1.5533,1.5517,1.5514,1.5493,1.5453,1.5504,1.5504,1.5494,1.5401,1.5393,1.5385,1.5456,1.5455,1.5454,1.5402,0,1.5712,1.5663,1.5662,1.5616,1.5592,1.5599,1.5573,1.5557,1.5549,1.5527,1.5518,1.5491,1.5505,1.5495,1.5474,1.5463,1.5434,1.5467,1.543,1.5428,1.5433,1.5376,1.5367,1.5319,1.5395,1.5394,1.5393,0,1.5649,1.563,1.5582,1.5565,1.5555,1.5532,1.5509,1.5488,1.5469,1.5465,1.5448,1.5449,1.5417,1.5437,1.5393,1.5415,1.54,1.5392,1.539,1.5385,1.5407,1.5366,1.5304,1.5296,1.5383,1.5384,1.5384,0,1.5609,1.5571,1.5538,1.5528,1.5508,1.5492,1.5482,1.5465,1.545,1.5428,1.5418,1.5393,1.5378,1.5358,1.5352,1.5368,1.5307,1.5327,1.5301,1.5301,1.5286,1.5286,1.5217,1.528,1.528,1.528,1.528,0,1.5554,1.5524,1.552,1.5498,1.5465,1.5464,1.543,1.5421,1.5406,1.5382,1.5387,1.5364,1.5358,1.5334,1.5328,1.5292,1.5285,1.528,1.5278,1.5278,1.5278,1.5266,1.5268,1.5278,1.5279,1.5279,1.5279,0,1.5502,1.5499,1.5462,1.5447,1.5442,1.5418,1.5404,1.5383,1.5377,1.5347,1.5339,1.5329,1.5301,1.5293,1.5259,1.5255,1.5211,1.5214,1.5218,1.5217,1.5191,1.5193,1.511,1.5098,1.517,1.517,1.5169,0,1.5467,1.5444,1.5427,1.5412,1.5403,1.5379,1.5364,1.5362,1.5346,1.5324,1.5305,1.5278,1.5255,1.5209,1.5197,1.5171,1.5172,1.5145,1.5167,1.5168,1.5169,1.5169,1.5166,1.5139,1.5139,1.5138,1.5137,0,1.5403,1.5403,1.5382,1.536,1.5342,1.5325,1.5308,1.5295,1.5291,1.5272,1.5244,1.5227,1.5193,1.5165,1.5139,1.5127,1.513,1.5131,1.5123,1.5121,1.5124,1.512,1.5204,1.5132,1.5133,1.5133,1.5133,1.5133,1.5357,1.5337,1.5322,1.5298,1.5286,1.527,1.525,1.5242,1.5219,1.5193,1.5193,1.5162,1.5144,1.5109,1.5096,1.5071,1.5079,1.5068,1.5065,1.5061,1.5058,1.513,1.5066,1.5066,1.5067,1.5067,1.5067,0,1.5292,1.5283,1.5261,1.5239,1.522,1.5228,1.521,1.5193,1.5166,1.515,1.5129,1.5096,1.507,1.5057,1.503,1.5012,1.5013,1.5005,1.5005,1.5002,1.5054,1.5062,1.5004,1.5004,1.5004,1.5004,1.5004,1.5005,1.5255,1.5222,1.5219,1.5179,1.517,1.5142,1.513,1.5115,1.5103,1.5067,1.5045,1.5038,1.5023,1.4995,1.497,1.4967,1.4956,1.4946,1.4943,1.4992,1.4998,1.5004,1.5012,1.4944,1.4944,1.4893,1.4893,1.4892]}]]